カタログに戻る

DELTA 2 R/B(2)

運用中HEO
NORAD 23018·ROCKET BODY·🇺🇸 United States

打ち上げ Feb 19, 1994 から Cape Canaveral Space Force Station

Loading…

次のパス (今後24時間)

TLE

最新Source: Space-Track

元期: Sep 12, 2026, 08:34 UTC

1 23018U 94013C   26255.35759869 -.00000584  00000-0  00000-0 0  9991
2 23018  24.2529 213.3396 6531669 254.0774  29.3761  2.02386613240513

AllMySatでDELTA 2 R/B(2)をリアルタイム追跡

Download on the App Store